[[{"header":{"parameterUnit":"m.s-1","parameterCategory":1,"la1":30.2991,"la2":30.254,"lo1":-89.0895,"lo2":-89.0444,"dy":0.0017,"dx":0.0017,"nx":28,"ny":28,"refTime":"2024-08-25T21:00:00:Z","depth":0,"parameterNumber":2,"parameterNumberName":"U-component_of_WINDS"},"data":[0,0,0,0,0,0,0,0,0,0,0,0,0,0,0,0,0,0,0,0,0,0,0,0,0,0,0,0,0,0,0,0,0,0,0,0,0,0,0,0,0,0,0,0,0,0,0,0,0,0,0,0,0,0,0,0,0,0,-0.5279,-0.5279,0,-0.5275,-0.5275,-0.5275,-0.5231,-0.523,-0.5229,-0.5228,-0.5225,-0.5226,-0.5227,0,0,0,0,0,0,0,0,0,0,0,0,0,-0.5252,-0.5253,-0.5279,-0.5279,-0.5279,-0.5275,-0.5275,-0.5275,-0.5231,-0.523,-0.5229,-0.5227,-0.5225,-0.5226,-0.5227,0,0,0,0,0,0,0,0,0,0,0,0,0,-0.5257,-0.5253,-0.5279,-0.5257,-0.5255,-0.5275,-0.5275,-0.5275,-0.5232,-0.523,-0.5228,-0.5227,-0.5225,-0.5226,-0.5227,-0.5269,0,0,-0.5232,-0.5232,0,0,0,0,0,0,0,0,-0.5257,-0.5258,-0.526,-0.5258,-0.5256,-0.5252,-0.5264,-0.5273,-0.5232,-0.524,-0.5228,-0.5226,-0.5235,-0.5236,-0.5239,-0.5269,-0.5269,-0.5232,-0.5233,-0.5233,-0.5234,0,0,0,0,0,0,0,-0.5257,-0.5258,-0.5277,-0.526,-0.5258,-0.5248,-0.5247,-0.5265,-0.5247,-0.524,-0.5236,-0.5236,-0.5234,-0.5237,-0.5238,-0.5269,-0.5232,-0.5233,-0.5234,-0.5234,-0.5333,-0.5335,0,0,0,0,0,0,-0.5259,-0.5258,-0.5278,-0.5277,-0.5253,-0.5249,-0.5248,-0.5255,-0.5247,-0.5244,-0.5238,-0.5234,-0.5236,-0.5237,-0.5238,-0.5287,-0.5233,-0.5235,-0.5235,-0.5331,-0.5334,-0.5335,0,0,0,0,0,0,-0.5259,-0.5261,-0.5278,-0.5267,-0.5268,-0.5252,-0.5259,-0.5256,-0.5259,-0.5246,-0.5242,-0.5245,-0.5235,-0.5236,-0.5262,-0.5286,-0.5235,-0.5236,-0.5329,-0.5332,-0.5334,-0.5384,0,0,0,0,0,0,-0.5258,-0.5261,-0.5277,-0.5268,-0.5269,-0.5301,-0.5261,-0.5257,-0.5261,-0.5257,-0.5251,-0.5248,-0.5233,-0.526,-0.5263,-0.5287,-0.5238,-0.5327,-0.533,-0.5334,-0.5381,-0.5388,-0.5395,0,0,0,0,0,-0.5257,-0.5291,-0.5278,-0.528,-0.5288,-0.5302,-0.5303,-0.5285,-0.5263,-0.5279,-0.527,-0.5249,-0.5283,-0.5263,-0.5266,-0.5291,-0.5325,-0.533,-0.5333,-0.5377,-0.5387,-0.5395,0,0,0,0,0,0,-0.5304,-0.529,-0.5274,-0.5306,-0.5306,-0.5295,-0.5314,-0.5296,-0.5302,-0.5297,-0.5275,-0.5274,-0.5303,-0.5299,-0.5277,-0.5331,-0.53,-0.5305,-0.5333,-0.5342,-0.5349,-0.535,-0.5239,0,0,0,0,0,-0.5318,-0.5331,-0.5318,-0.5347,-0.5348,-0.5331,-0.5337,-0.5322,-0.5321,-0.5321,-0.5314,-0.5315,-0.5325,-0.5333,-0.5342,-0.5379,-0.5378,-0.5398,-0.5406,-0.5412,-0.5417,-0.5437,-0.5446,-0.5348,-0.5348,-0.5348,0,0,-0.5348,-0.5341,-0.5351,-0.5356,-0.5354,-0.5369,-0.5331,-0.5348,-0.5359,-0.5324,-0.5348,-0.5343,-0.5342,-0.5373,-0.5387,-0.5371,-0.5443,-0.5417,-0.5422,-0.5423,-0.5442,-0.5451,-0.5459,-0.5351,-0.5351,-0.535,0,0,-0.5409,-0.5404,-0.5429,-0.5427,-0.5425,-0.5413,-0.5419,-0.5411,-0.5406,-0.543,-0.5404,-0.5417,-0.5435,-0.5436,-0.5438,-0.5499,-0.548,-0.5503,-0.5542,-0.5562,-0.5569,-0.5576,-0.5599,-0.5607,-0.5507,-0.5508,-0.5508,0,-0.5446,-0.5466,-0.5444,-0.5462,-0.5466,-0.5434,-0.5459,-0.5459,-0.546,-0.5463,-0.5445,-0.5469,-0.5466,-0.5497,-0.5512,-0.5515,-0.5522,-0.5504,-0.557,-0.5576,-0.5582,-0.5604,-0.5612,-0.551,-0.551,-0.551,-0.551,0,-0.5512,-0.5526,-0.5546,-0.5547,-0.5553,-0.5574,-0.5556,-0.5565,-0.555,-0.5541,-0.5565,-0.556,-0.5568,-0.5574,-0.556,-0.5604,-0.5595,-0.5574,-0.5543,-0.5595,-0.5615,-0.5623,-0.5515,-0.5514,-0.5513,-0.5512,0,0,-0.5603,-0.5591,-0.5599,-0.5599,-0.5594,-0.5605,-0.5625,-0.5632,-0.564,-0.5641,-0.5659,-0.5675,-0.5656,-0.5659,-0.5644,-0.5662,-0.5711,-0.5638,-0.5638,-0.5653,-0.5761,-0.5777,-0.5787,-0.5698,-0.5699,-0.57,-0.5761,0,-0.5662,-0.5696,-0.5677,-0.5714,-0.5727,-0.5697,-0.5715,-0.5714,-0.5706,-0.5716,-0.5707,-0.572,-0.5693,-0.5694,-0.571,-0.5702,-0.5733,-0.5697,-0.5715,-0.5716,-0.5717,-0.5797,-0.5815,-0.5873,-0.5769,-0.577,-0.5771,0,-0.5737,-0.5741,-0.5779,-0.5771,-0.5775,-0.5792,-0.5797,-0.5807,-0.5805,-0.5798,-0.5802,-0.5783,-0.5803,-0.5771,-0.5799,-0.5775,-0.5781,-0.5778,-0.578,-0.5782,-0.5747,-0.5803,-0.589,-0.59,-0.5783,-0.5782,-0.5781,0,-0.5801,-0.5816,-0.584,-0.5841,-0.5832,-0.5845,-0.5842,-0.5838,-0.5844,-0.5848,-0.5852,-0.5859,-0.5863,-0.5869,-0.5853,-0.5831,-0.5884,-0.585,-0.5879,-0.588,-0.5893,-0.5892,-0.5984,-0.5894,-0.5894,-0.5894,-0.5894,0,-0.587,-0.5895,-0.5869,-0.5885,-0.5912,-0.5889,-0.5917,-0.5911,-0.5908,-0.5922,-0.5896,-0.591,-0.5887,-0.5899,-0.5887,-0.5912,-0.5914,-0.591,-0.5906,-0.5913,-0.5914,-0.5917,-0.5913,-0.5896,-0.5896,-0.5895,-0.5895,0,-0.5947,-0.5931,-0.5956,-0.5945,-0.5943,-0.5963,-0.5954,-0.5969,-0.5958,-0.5976,-0.5979,-0.5964,-0.5976,-0.5961,-0.5972,-0.5964,-0.5999,-0.5989,-0.5999,-0.5997,-0.6027,-0.6025,-0.6126,-0.6138,-0.604,-0.604,-0.6041,0,-0.5993,-0.6011,-0.6002,-0.6009,-0.6008,-0.602,-0.6025,-0.6004,-0.601,-0.601,-0.6024,-0.6035,-0.6042,-0.6064,-0.6054,-0.6062,-0.6053,-0.6088,-0.6055,-0.6061,-0.6055,-0.6055,-0.6057,-0.6095,-0.6096,-0.6097,-0.6098,0,-0.6077,-0.6067,-0.6076,-0.6081,-0.6088,-0.6092,-0.6094,-0.6101,-0.6079,-0.6088,-0.61,-0.6106,-0.6117,-0.6128,-0.6134,-0.6131,-0.6112,-0.6108,-0.6116,-0.6123,-0.6129,-0.6127,-0.6019,-0.6107,-0.6106,-0.6105,-0.6105,-0.6104,-0.614,-0.6155,-0.6151,-0.6161,-0.616,-0.6162,-0.6175,-0.6166,-0.6176,-0.6183,-0.617,-0.6186,-0.6183,-0.6189,-0.6189,-0.6202,-0.6187,-0.6197,-0.62,-0.6203,-0.6208,-0.6126,-0.6202,-0.6202,-0.6202,-0.6202,-0.6201,0,-0.6224,-0.6219,-0.6229,-0.6232,-0.624,-0.6219,-0.622,-0.6228,-0.6242,-0.6242,-0.6249,-0.6264,-0.6274,-0.6264,-0.6273,-0.6285,-0.6276,-0.6288,-0.6288,-0.6288,-0.6221,-0.6214,-0.6295,-0.6295,-0.6295,-0.6295,-0.6295,-0.6295,-0.6268,-0.6293,-0.6283,-0.6307,-0.6302,-0.6317,-0.6319,-0.6321,-0.6321,-0.6338,-0.6346,-0.6339,-0.6335,-0.6344,-0.6353,-0.6349,-0.6355,-0.637,-0.6364,-0.6302,-0.6293,-0.6284,-0.6277,-0.6371,-0.6371,-0.643,-0.6431,-0.6431]},{"header":{"parameterUnit":"m.s-1","parameterCategory":1,"la1":30.2991,"la2":30.254,"lo1":-89.0895,"lo2":-89.0444,"dy":0.0017,"dx":0.0017,"nx":28,"ny":28,"refTime":"2024-08-25T21:00:00:Z","depth":0,"parameterNumber":3,"parameterNumberName":"V-component_of_WINDS"},"data":[0,0,0,0,0,0,0,0,0,0,0,0,0,0,0,0,0,0,0,0,0,0,0,0,0,0,0,0,0,0,0,0,0,0,0,0,0,0,0,0,0,0,0,0,0,0,0,0,0,0,0,0,0,0,0,0,0,0,1.4536,1.4535,0,1.4494,1.4494,1.4493,1.4459,1.4458,1.4458,1.4458,1.4412,1.4411,1.441,0,0,0,0,0,0,0,0,0,0,0,0,0,1.4581,1.4581,1.4536,1.4535,1.4535,1.4495,1.4494,1.4493,1.4459,1.4458,1.4458,1.4457,1.4412,1.4411,1.441,0,0,0,0,0,0,0,0,0,0,0,0,0,1.4553,1.458,1.4536,1.4513,1.451,1.4495,1.4494,1.4493,1.4459,1.4458,1.4458,1.4457,1.4413,1.4411,1.441,1.4413,0,0,1.4406,1.4406,0,0,0,0,0,0,0,0,1.4554,1.4551,1.4516,1.4514,1.4511,1.4481,1.4493,1.4466,1.4459,1.4478,1.4458,1.4457,1.4435,1.4432,1.4425,1.4411,1.4409,1.4406,1.4405,1.4405,1.4404,0,0,0,0,0,0,0,1.4556,1.4553,1.4519,1.4516,1.4513,1.4503,1.4499,1.4488,1.446,1.4476,1.4474,1.447,1.4434,1.4427,1.4424,1.4409,1.4406,1.4405,1.4404,1.4404,1.4394,1.4395,0,0,0,0,0,0,1.4562,1.4555,1.452,1.4518,1.4532,1.4503,1.4498,1.4491,1.446,1.4455,1.447,1.4468,1.4429,1.4426,1.4422,1.4423,1.4405,1.4404,1.4403,1.4394,1.4394,1.4395,0,0,0,0,0,0,1.4564,1.456,1.4522,1.4536,1.453,1.4503,1.4496,1.4491,1.4484,1.4456,1.445,1.4468,1.4429,1.4424,1.4416,1.4421,1.4403,1.4402,1.4393,1.4394,1.4394,1.4426,0,0,0,0,0,0,1.4565,1.456,1.4562,1.4536,1.453,1.4517,1.4496,1.449,1.4482,1.4479,1.4452,1.4447,1.4428,1.4418,1.4415,1.4419,1.4401,1.4392,1.4393,1.4394,1.4424,1.4428,1.4431,0,0,0,0,0,1.4567,1.4572,1.4562,1.4558,1.4531,1.4518,1.4514,1.4492,1.4483,1.4484,1.4465,1.4448,1.4422,1.4418,1.4413,1.4418,1.4392,1.4393,1.4394,1.4423,1.4427,1.4431,0,0,0,0,0,0,1.4598,1.4568,1.4557,1.4554,1.4539,1.4512,1.4512,1.4498,1.4484,1.4482,1.4454,1.4449,1.4443,1.443,1.4426,1.4419,1.4404,1.4405,1.4428,1.4432,1.4435,1.4438,1.44,0,0,0,0,0,1.4605,1.4598,1.4571,1.4571,1.4564,1.454,1.4533,1.4518,1.4501,1.4494,1.4475,1.4458,1.4446,1.4438,1.4425,1.4423,1.4416,1.4424,1.4427,1.443,1.443,1.4427,1.443,1.4399,1.4399,1.4399,0,0,1.4619,1.4601,1.4598,1.4577,1.4564,1.4556,1.4535,1.4527,1.4521,1.4492,1.4483,1.4469,1.4448,1.4443,1.4439,1.4431,1.4437,1.4431,1.4434,1.4432,1.4428,1.4431,1.4434,1.4399,1.4399,1.4399,0,0,1.4639,1.4626,1.4624,1.4611,1.4591,1.4575,1.4575,1.455,1.454,1.4531,1.4509,1.4501,1.448,1.4466,1.4456,1.4472,1.4455,1.4468,1.4485,1.4482,1.4485,1.4487,1.4491,1.4493,1.4469,1.4469,1.4469,0,1.4658,1.4646,1.4625,1.4619,1.461,1.4585,1.4582,1.4571,1.4547,1.4541,1.4533,1.4507,1.4491,1.4482,1.4486,1.4479,1.4476,1.4471,1.4486,1.4488,1.449,1.4494,1.4496,1.4471,1.4471,1.447,1.447,0,1.467,1.4662,1.4663,1.4642,1.4633,1.4629,1.4606,1.46,1.4585,1.457,1.456,1.4541,1.4523,1.452,1.4506,1.4509,1.4504,1.4492,1.4476,1.4495,1.4498,1.4499,1.4473,1.4473,1.4472,1.4472,0,0,1.4708,1.4676,1.4677,1.4667,1.4643,1.4636,1.4631,1.4615,1.4609,1.4594,1.4588,1.4572,1.456,1.4549,1.4532,1.453,1.4543,1.4518,1.4517,1.4522,1.4544,1.4553,1.4555,1.4532,1.4533,1.4533,1.4545,0,1.4724,1.4714,1.4694,1.4689,1.4681,1.4658,1.4653,1.4637,1.4623,1.4613,1.4596,1.4585,1.4571,1.4564,1.4561,1.4542,1.4547,1.4541,1.4525,1.4525,1.453,1.4557,1.4567,1.458,1.4547,1.4547,1.4547,0,1.4741,1.4729,1.4723,1.47,1.4696,1.4692,1.4676,1.4667,1.4649,1.4638,1.4626,1.4609,1.46,1.4587,1.4575,1.4571,1.4564,1.4554,1.4554,1.455,1.4536,1.4554,1.4583,1.4585,1.4549,1.4549,1.4549,0,1.4769,1.475,1.4745,1.4737,1.471,1.4708,1.4696,1.4677,1.4669,1.4655,1.4649,1.4633,1.4624,1.4612,1.4591,1.4583,1.458,1.4565,1.457,1.457,1.4569,1.457,1.4597,1.4566,1.4566,1.4566,1.4566,0,1.4788,1.4786,1.4757,1.4753,1.4749,1.4727,1.4723,1.4709,1.4693,1.4685,1.4664,1.4657,1.463,1.4619,1.4602,1.4594,1.4591,1.4581,1.4576,1.4582,1.4583,1.4576,1.4574,1.4567,1.4567,1.4566,1.4566,0,1.4818,1.4798,1.4791,1.4766,1.476,1.4758,1.4737,1.4732,1.4716,1.4707,1.4704,1.4679,1.4665,1.4643,1.4623,1.4611,1.4606,1.4599,1.4613,1.461,1.4615,1.4615,1.4638,1.464,1.4609,1.4609,1.461,0,1.4831,1.4829,1.4804,1.4798,1.4788,1.4779,1.477,1.4748,1.474,1.4719,1.4716,1.4702,1.4689,1.4668,1.4648,1.4632,1.4624,1.4633,1.4621,1.4627,1.4623,1.4623,1.4622,1.4635,1.4636,1.4636,1.4637,0,1.4856,1.4847,1.4836,1.4822,1.4813,1.4801,1.4787,1.4783,1.4757,1.4749,1.4736,1.4726,1.4706,1.4692,1.4673,1.466,1.4644,1.4641,1.4641,1.4646,1.4654,1.4649,1.4619,1.464,1.464,1.4639,1.4639,1.4639,1.4877,1.4874,1.4856,1.4845,1.4833,1.4821,1.4815,1.4799,1.4788,1.4771,1.4758,1.4746,1.4727,1.4701,1.4688,1.4677,1.467,1.467,1.467,1.467,1.4672,1.4657,1.4674,1.4674,1.4674,1.4674,1.4674,0,1.4901,1.4888,1.4878,1.486,1.4851,1.4838,1.4823,1.4815,1.4805,1.479,1.4778,1.4762,1.4748,1.4727,1.471,1.4706,1.4698,1.4702,1.4702,1.4699,1.468,1.4682,1.4709,1.4709,1.4709,1.4709,1.4709,1.4709,1.4912,1.4905,1.4894,1.4881,1.4868,1.4857,1.4849,1.4837,1.4825,1.4809,1.4797,1.4784,1.4765,1.4748,1.4734,1.4728,1.4722,1.4729,1.4721,1.4703,1.47,1.4697,1.4698,1.4728,1.4728,1.474,1.474,1.474]}]]